DW1035 Weather Reports


time (UTC)temp
F
wind
direction
speed
knots
gust
knots
rain 1hr
in
rain 24hr
in
rain mn
in
humidity
%
barometer
mb
20260507074506 50 0 0.0 0.0 0.00 0.58 0.00 92 1003.0
20260507074006 50 0 0.0 0.0 0.00 0.58 0.00 92 1002.8
20260507073506 50 0 0.0 0.0 0.00 0.58 0.00 93 1002.6
20260507073006 50 0 0.0 0.0 0.00 0.58 0.00 93 1002.9
20260507071506 50 0 0.0 0.0 0.00 0.58 0.00 92 1003.0
20260507071006 50 0 0.0 0.0 0.00 0.58 0.00 92 1002.9
20260507070506 50 0 0.0 0.0 0.00 0.58 0.00 91 1002.6
20260507070010 51 0 0.0 0.0 0.00 0.58 0.00 92 1002.2
20260507064506 51 0 0.0 0.0 0.00 0.58 0.00 92 1002.4
20260507064006 51 0 0.0 0.0 0.00 0.58 0.00 92 1002.2
20260507063505 51 0 0.0 0.0 0.00 0.58 0.00 93 1002.4
20260507063007 51 0 0.0 0.0 0.00 0.58 0.00 93 1002.5
20260507061505 51 0 0.0 0.0 0.00 0.58 0.00 93 1002.5
20260507061005 51 0 0.0 0.0 0.00 0.58 0.00 94 1002.4
20260507060006 51 0 0.0 0.0 0.00 0.58 0.00 93 1002.4
20260507054506 52 0 0.0 0.0 0.00 0.58 0.00 95 1002.4
20260507054006 52 0 0.0 0.0 0.00 0.58 0.00 95 1002.4
20260507053505 52 0 0.0 0.0 0.00 0.58 0.00 94 1002.1
20260507053006 52 0 0.0 0.0 0.00 0.58 0.00 94 1001.8
20260507051505 53 0 0.0 0.0 0.00 0.58 0.00 96 1002.2
20260507051006 53 0 0.0 0.0 0.00 0.58 0.00 95 1002.2
20260507050505 53 0 0.0 0.0 0.00 0.58 0.00 96 1002.2
20260507050006 53 0 0.0 0.0 0.00 0.58 0.00 96 1002.1
20260507044505 54 0 0.0 0.0 0.27 0.58 0.00 97 1002.0
20260507044006 54 0 0.0 0.0 0.27 0.58 0.00 98 1002.0
20260507043505 54 0 0.0 0.0 0.27 0.58 0.00 98 1002.0
20260507043005 55 0 0.0 0.0 0.27 0.58 0.00 98 1001.9
20260507041506 55 0 0.0 0.0 0.27 0.58 0.00 98 1001.5
20260507040505 56 0 0.0 0.0 0.27 0.58 0.00 99 1001.5
20260507040005 56 0 0.0 0.0 0.00 0.32 0.00 99 1001.6
20260507034505 56 0 0.0 0.0 0.00 0.32 0.27 99 1001.7
20260507034005 55 0 0.0 0.0 0.00 0.32 0.27 99 1001.9
20260507033505 54 0 0.0 0.0 0.00 0.32 0.27 99 1001.8
20260507033005 53 0 0.0 0.0 0.00 0.32 0.27 99 1001.7
20260507031005 52 0 0.0 0.0 0.00 0.32 0.27 99 1001.2
20260507030505 52 0 0.0 0.0 0.00 0.31 0.27 99 1001.1
20260507030005 52 0 0.0 0.0 0.00 0.31 0.27 99 1001.1
20260507024505 51 0 0.0 0.0 0.00 0.31 0.27 99 1001.3
20260507024004 52 0 0.0 0.0 0.00 0.31 0.27 99 1001.3
20260507023505 52 0 0.0 0.0 0.00 0.31 0.27 99 1001.3
20260507023005 52 0 0.0 0.0 0.00 0.31 0.27 99 1001.4
20260507021505 52 0 0.0 0.0 0.00 0.31 0.27 99 1001.5
20260507021005 52 0 0.0 0.0 0.00 0.31 0.27 99 1001.5
20260507020505 53 0 0.0 0.0 0.00 0.31 0.27 99 1001.6
20260507020004 53 0 0.0 0.0 0.00 0.31 0.27 99 1001.7
20260507014504 53 0 0.0 0.0 0.00 0.31 0.27 99 1001.7
20260507014005 53 0 0.0 0.0 0.00 0.31 0.27 99 1001.7
20260507013505 53 0 0.0 0.0 0.00 0.31 0.27 99 1001.8
20260507011505 52 0 0.0 0.0 0.00 0.31 0.27 99 1001.9
20260507010505 52 0 0.0 0.0 0.00 0.31 0.27 99 1001.9
20260507010004 52 0 0.0 0.0 0.01 0.31 0.27 99 1001.9
20260507004504 52 0 0.0 0.0 0.01 0.31 0.27 99 1002.0
20260507004004 52 0 0.0 0.0 0.01 0.31 0.27 99 1002.0
20260507003505 52 0 0.0 0.0 0.01 0.31 0.27 99 1001.9
20260507003004 53 0 0.0 0.0 0.01 0.31 0.27 99 1002.0
20260507001504 53 0 0.0 0.0 0.01 0.31 0.27 99 1002.0
20260507000504 53 0 0.0 0.0 0.01 0.31 0.26 99 1001.9
20260507000004 53 0 0.0 0.0 0.00 0.30 0.26 99 1001.9
20260506234505 53 0 0.0 0.0 0.00 0.30 0.26 99 1002.1
20260506234004 53 0 0.0 0.0 0.00 0.30 0.26 99 1002.1
20260506233503 53 0 0.0 0.0 0.00 0.30 0.26 99 1002.2
20260506233004 53 0 0.0 0.0 0.00 0.30 0.26 99 1002.0
20260506230504 53 0 0.0 0.0 0.04 0.30 0.25 99 1002.2
20260506230004 53 0 0.0 0.0 0.05 0.30 0.26 99 1002.2
20260506224503 52 0 0.0 0.0 0.05 0.30 0.26 99 1002.3
20260506223504 52 0 0.0 0.0 0.06 0.30 0.26 99 1002.5
20260506223004 52 0 0.0 0.0 0.08 0.30 0.26 99 1002.4
20260506221005 53 0 0.0 0.0 0.07 0.27 0.23 99 1002.5
20260506220509 53 0 0.0 0.0 0.07 0.25 0.21 99 1002.6
20260506220010 53 0 0.0 0.0 0.07 0.25 0.21 99 1002.7
20260506214509 54 0 0.0 0.0 0.09 0.24 0.21 99 1002.7
20260506213510 54 0 0.0 0.0 0.09 0.23 0.20 99 1003.0
20260506213010 54 0 0.0 0.0 0.08 0.21 0.18 99 1003.0
20260506211009 54 0 0.0 0.0 0.09 0.19 0.16 99 1003.1
20260506210510 54 0 0.0 0.0 0.08 0.17 0.14 99 1003.0
20260506210010 55 0 0.0 0.0 0.08 0.17 0.14 99 1003.1
20260506204509 55 0 0.0 0.0 0.05 0.15 0.12 99 1003.2
20260506204009 56 0 0.0 0.0 0.06 0.14 0.11 99 1003.2
20260506203510 56 0 0.0 0.0 0.06 0.13 0.11 99 1003.2
20260506201509 56 0 0.0 0.0 0.02 0.10 0.07 99 1003.1
20260506201009 56 0 0.0 0.0 0.02 0.09 0.07 99 1003.1
20260506200009 56 0 0.0 0.0 0.04 0.09 0.06 99 1003.0
20260506194509 55 0 0.0 0.0 0.06 0.09 0.07 99 1003.5
20260506194009 55 0 0.0 0.0 0.05 0.07 0.05 99 1004.1
20260506193509 56 0 0.0 0.0 0.05 0.07 0.05 97 1003.6
20260506193009 56 0 0.0 0.0 0.05 0.06 0.05 97 1003.6
20260506191509 56 0 0.0 0.0 0.05 0.05 0.05 95 1003.9
20260506191009 56 0 0.0 0.0 0.04 0.04 0.04 94 1004.1
20260506184509 57 0 0.0 0.0 0.01 0.01 0.01 89 1003.9
20260506184009 57 0 0.0 0.0 0.01 0.01 0.01 87 1003.9
20260506183509 57 0 0.0 0.0 0.00 0.00 0.00 86 1003.6
20260506183009 57 0 0.0 0.0 0.00 0.00 0.00 84 1003.5
20260506181509 57 0 0.0 0.0 0.00 0.00 0.00 84 1003.5
20260506181009 57 0 0.0 0.0 0.00 0.00 0.00 84 1003.5
20260506180508 57 0 0.0 0.0 0.00 0.00 0.00 84 1003.5
20260506180009 57 0 0.0 0.0 0.00 0.00 0.00 84 1003.6
20260506174509 58 0 0.0 0.0 0.00 0.00 0.00 83 1003.8
20260506174008 58 0 0.0 0.0 0.00 0.00 0.00 82 1003.8
20260506173509 58 0 0.0 0.0 0.00 0.00 0.00 81 1003.9
20260506173009 58 0 0.0 0.0 0.00 0.00 0.00 80 1003.9
20260506171508 58 0 0.0 0.0 0.00 0.00 0.00 82 1004.0
20260506171008 58 0 0.0 0.0 0.00 0.00 0.00 82 1004.1
20260506170509 59 0 0.0 0.0 0.00 0.00 0.00 81 1004.2
20260506170009 59 0 0.0 0.0 0.00 0.00 0.00 81 1004.3
20260506164508 61 0 0.0 0.0 0.00 0.00 0.00 80 1004.4
20260506164008 61 0 0.0 0.0 0.00 0.00 0.00 79 1004.5
20260506163008 62 0 0.0 0.0 0.00 0.00 0.00 79 1004.6
20260506161008 62 0 0.0 0.0 0.00 0.00 0.00 79 1005.1
20260506160508 62 0 0.0 0.0 0.00 0.00 0.00 80 1005.2
20260506160008 62 0 0.0 0.0 0.00 0.00 0.00 80 1005.3
20260506154508 61 0 0.0 0.0 0.00 0.00 0.00 80 1005.4
20260506154008 61 0 0.0 0.0 0.00 0.00 0.00 81 1005.5
20260506153508 60 0 0.0 0.0 0.00 0.00 0.00 82 1005.6
20260506153008 60 0 0.0 0.0 0.00 0.00 0.00 82 1005.4
20260506151508 60 0 0.0 0.0 0.00 0.00 0.00 83 1005.7
20260506151008 59 0 0.0 0.0 0.00 0.00 0.00 83 1005.6
20260506150508 59 0 0.0 0.0 0.00 0.00 0.00 84 1005.5
20260506150008 59 0 0.0 0.0 0.00 0.00 0.00 84 1005.4
20260506144507 59 0 0.0 0.0 0.00 0.00 0.00 84 1005.4
20260506144008 59 0 0.0 0.0 0.00 0.00 0.00 84 1005.4
20260506143008 59 0 0.0 0.0 0.00 0.00 0.00 83 1005.2
20260506141508 58 0 0.0 0.0 0.00 0.00 0.00 85 1005.3
20260506140507 58 0 0.0 0.0 0.00 0.00 0.00 87 1005.5
20260506140008 57 0 0.0 0.0 0.00 0.00 0.00 87 1005.6
20260506134008 57 0 0.0 0.0 0.00 0.00 0.00 87 1005.8
20260506133507 57 0 0.0 0.0 0.00 0.00 0.00 87 1005.7
20260506133007 57 0 0.0 0.0 0.00 0.00 0.00 88 1005.8
20260506131508 56 0 0.0 0.0 0.00 0.00 0.00 88 1005.8
20260506130007 56 0 0.0 0.0 0.00 0.00 0.00 88 1005.7
20260506124007 55 0 0.0 0.0 0.00 0.00 0.00 88 1005.8
20260506123507 55 0 0.0 0.0 0.00 0.00 0.00 89 1005.8
20260506123008 55 0 0.0 0.0 0.00 0.00 0.00 89 1005.9
20260506121508 55 0 0.0 0.0 0.00 0.00 0.00 89 1006.0
20260506121007 55 0 0.0 0.0 0.00 0.00 0.00 90 1006.1
20260506120507 55 0 0.0 0.0 0.00 0.00 0.00 89 1006.1
20260506120007 55 0 0.0 0.0 0.00 0.00 0.00 89 1006.1
20260506114508 54 0 0.0 0.0 0.00 0.00 0.00 91 1006.4
20260506114007 54 0 0.0 0.0 0.00 0.00 0.00 91 1006.4
20260506113506 53 0 0.0 0.0 0.00 0.00 0.00 91 1006.3
20260506113007 53 0 0.0 0.0 0.00 0.00 0.00 92 1006.2
20260506111507 53 0 0.0 0.0 0.00 0.00 0.00 93 1006.2
20260506111007 52 0 0.0 0.0 0.00 0.00 0.00 93 1006.2
20260506110507 52 0 0.0 0.0 0.00 0.00 0.00 92 1006.4
20260506104507 52 0 0.0 0.0 0.00 0.00 0.00 93 1006.4
20260506104007 52 0 0.0 0.0 0.00 0.00 0.00 93 1006.4
20260506103507 52 0 0.0 0.0 0.00 0.00 0.00 93 1006.2
20260506101507 51 0 0.0 0.0 0.00 0.00 0.00 94 1006.2
20260506101006 50 0 0.0 0.0 0.00 0.00 0.00 94 1006.1
20260506100506 50 0 0.0 0.0 0.00 0.00 0.00 94 1006.1
20260506100007 50 0 0.0 0.0 0.00 0.00 0.00 94 1006.2
20260506093507 50 0 0.0 0.0 0.00 0.00 0.00 95 1006.2
20260506091507 50 0 0.0 0.0 0.00 0.00 0.00 94 1006.0
20260506091007 50 0 0.0 0.0 0.00 0.00 0.00 94 1006.1
20260506090507 50 0 0.0 0.0 0.00 0.00 0.00 94 1006.1
20260506090006 50 0 0.0 0.0 0.00 0.00 0.00 94 1006.1
20260506084006 50 0 0.0 0.0 0.00 0.00 0.00 93 1006.0
20260506083507 50 0 0.0 0.0 0.00 0.00 0.00 93 1006.0
20260506083006 51 0 0.0 0.0 0.00 0.00 0.00 93 1006.0
20260506080507 51 0 0.0 0.0 0.00 0.00 0.00 91 1006.0